Merrill, WI

1:22 AM CST on February 26, 2017 (GMT -0600)
Merrill Municipal

Weather History for KRRL - March, 2014

Change the Weather History Date:

Tuesday, March 11, 2014

  Actual Average Record
Temperature  
Mean Temperature 36 °F -  
Max Temperature 42 °F 36 °F 60 °F (2012)
Min Temperature 31 °F 13 °F -11 °F (1943)
Degree Days  
Heating Degree Days 28    
Moisture  
Dew Point 26 °F    
Average Humidity 61    
Maximum Humidity 74    
Minimum Humidity 49    
Precipitation  
Precipitation 0.00 in - - ()
Sea Level Pressure  
Sea Level Pressure 29.74 in    
Wind  
Wind Speed 4 mph (North)    
Max Wind Speed 14 mph    
Max Gust Speed 18 mph    
Visibility 10 miles    
Events      
Averages and records for this station are not official NWS values.
T = Trace of Precipitation, MM = Missing Value Source: NWS Daily Summary

Daily Weather History Graph

Daily Weather History Graph

Search for Another Location

Airport or City:

Trip Planner

Search our weather history database for the weather conditions in past years. The results will help you decide how hot, cold, wet, or windy it might be!

Date:

Astronomy

Mar. 11, 2014 Rise Set
Actual Time 7:18 AM CDT 6:59 PM CDT
Civil Twilight 6:49 AM CDT 7:28 PM CDT
Nautical Twilight 6:15 AM CDT 8:03 PM CDT
Astronomical Twilight 5:40 AM CDT 8:37 PM CDT
Moon 2:26 PM CDT (3/11) 4:22 AM CDT (3/11)
Length of Visible Light 12h 39m
Length of Day
11h 40m
Waxing Gibbous, 78% of the Moon is Illuminated
Mar 11
Waxing Gibbous
Mar 16
Full
Mar 23
Last Quarter
Mar 30
New
Apr 7
First Quarter

Hourly Weather History & Observations

Time (CDT) Temp. Windchill Dew Point Humidity Pressure Visibility Wind Dir Wind Speed Gust Speed Precip Events Conditions
12:15 AM 39.7 °F - 30.9 °F 71% 29.61 in 10.0 mi Calm Calm - N/A   Overcast
12:35 AM 40.6 °F 38.6 °F 30.2 °F 66% 29.61 in 10.0 mi West 3.5 mph - N/A   Mostly Cloudy
12:55 AM 38.1 °F 35.7 °F 30.4 °F 74% 29.61 in 10.0 mi WSW 3.5 mph - N/A   Clear
1:15 AM 38.7 °F 34.3 °F 30.2 °F 72% 29.62 in 10.0 mi West 5.8 mph - N/A   Clear
1:35 AM 39.0 °F 34.8 °F 30.0 °F 70% 29.63 in 10.0 mi West 5.8 mph - N/A   Scattered Clouds
1:55 AM 39.2 °F 35.9 °F 30.0 °F 70% 29.64 in 10.0 mi West 4.6 mph - N/A   Scattered Clouds
2:15 AM 39.7 °F - 29.8 °F 68% 29.64 in 10.0 mi Calm Calm - N/A   Scattered Clouds
2:35 AM 41.0 °F - 29.1 °F 63% 29.64 in 10.0 mi Calm Calm - N/A   Clear
2:55 AM 40.8 °F - 28.6 °F 62% 29.65 in 10.0 mi Calm Calm - N/A   Mostly Cloudy
3:15 AM 41.4 °F - 28.0 °F 59% 29.64 in 10.0 mi Calm Calm - N/A   Mostly Cloudy
3:35 AM 38.3 °F - 28.8 °F 69% 29.63 in 10.0 mi Calm Calm - N/A   Scattered Clouds
3:55 AM 37.2 °F - 28.6 °F 71% 29.63 in 10.0 mi Calm Calm - N/A   Mostly Cloudy
4:15 AM 40.1 °F 38.0 °F 27.5 °F 61% 29.64 in 10.0 mi NW 3.5 mph - N/A   Overcast
4:35 AM 39.4 °F 36.1 °F 28.2 °F 64% 29.65 in 10.0 mi NW 4.6 mph - N/A   Overcast
4:55 AM 40.1 °F 38.0 °F 27.7 °F 61% 29.65 in 10.0 mi NW 3.5 mph - N/A   Overcast
5:15 AM 39.6 °F 37.4 °F 27.7 °F 62% 29.66 in 10.0 mi WNW 3.5 mph - N/A   Overcast
5:35 AM 39.4 °F - 27.9 °F 63% 29.66 in 10.0 mi Calm Calm - N/A   Overcast
5:55 AM 39.2 °F - 27.9 °F 64% 29.67 in 10.0 mi Calm Calm - N/A   Overcast
6:15 AM 39.2 °F - 27.5 °F 63% 29.67 in 10.0 mi Calm Calm - N/A   Overcast
6:35 AM 38.5 °F - 27.5 °F 65% 29.67 in 10.0 mi Calm Calm - N/A   Overcast
6:55 AM 36.9 °F - 28.0 °F 70% 29.68 in 10.0 mi Calm Calm - N/A   Mostly Cloudy
7:15 AM 37.8 °F 33.3 °F 27.5 °F 67% 29.69 in 10.0 mi NNW 5.8 mph - N/A   Scattered Clouds
7:35 AM 37.6 °F 35.1 °F 27.5 °F 67% 29.70 in 10.0 mi North 3.5 mph - N/A   Overcast
7:55 AM 37.8 °F - 27.5 °F 67% 29.70 in 10.0 mi Calm Calm - N/A   Overcast
8:15 AM 36.9 °F - 27.9 °F 70% 29.70 in 10.0 mi Calm Calm - N/A   Scattered Clouds
8:35 AM 37.8 °F - 27.5 °F 67% 29.71 in 10.0 mi Calm Calm - N/A   Scattered Clouds
8:55 AM 37.8 °F 34.2 °F 28.0 °F 68% 29.71 in 10.0 mi North 4.6 mph - N/A   Mostly Cloudy
9:15 AM 38.5 °F 32.7 °F 28.0 °F 66% 29.72 in 10.0 mi North 8.1 mph - N/A   Mostly Cloudy
9:35 AM 38.5 °F 33.4 °F 28.2 °F 67% 29.72 in 10.0 mi North 6.9 mph - N/A   Overcast
9:55 AM 38.5 °F 32.7 °F 28.4 °F 67% 29.72 in 10.0 mi North 8.1 mph - N/A   Overcast
10:15 AM 38.5 °F 33.4 °F 28.4 °F 67% 29.73 in 10.0 mi North 6.9 mph - N/A   Overcast
10:35 AM 39.2 °F 33.0 °F 28.0 °F 64% 29.73 in 10.0 mi North 9.2 mph - N/A   Overcast
10:55 AM 39.4 °F 35.2 °F 27.9 °F 63% 29.74 in 10.0 mi North 5.8 mph - N/A   Overcast
11:15 AM 39.9 °F 35.8 °F 27.5 °F 61% 29.76 in 10.0 mi NNW 5.8 mph - N/A   Overcast
11:35 AM 40.5 °F 35.8 °F 26.4 °F 57% 29.76 in 10.0 mi NNW 6.9 mph - N/A   Overcast
11:55 AM 40.8 °F 36.9 °F 26.2 °F 56% 29.76 in 10.0 mi North 5.8 mph - N/A   Overcast
12:15 PM 41.0 °F 35.8 °F 26.1 °F 55% 29.76 in 10.0 mi North 8.1 mph - N/A   Overcast
12:35 PM 41.0 °F 37.1 °F 26.4 °F 56% 29.77 in 10.0 mi NNW 5.8 mph - N/A   Overcast
12:55 PM 41.4 °F 36.2 °F 25.0 °F 52% 29.76 in 10.0 mi NNW 8.1 mph - N/A   Overcast
1:15 PM 41.7 °F 36.1 °F 24.4 °F 50% 29.76 in 10.0 mi North 9.2 mph - N/A   Overcast
1:35 PM 41.7 °F 36.7 °F 25.0 °F 52% 29.76 in 10.0 mi North 8.1 mph - N/A   Scattered Clouds
1:55 PM 41.9 °F 36.3 °F 25.0 °F 51% 29.76 in 10.0 mi NW 9.2 mph - N/A   Scattered Clouds
2:15 PM 42.1 °F 37.1 °F 23.9 °F 49% 29.75 in 10.0 mi NNW 8.1 mph - N/A   Clear
2:35 PM 42.1 °F 38.4 °F 24.4 °F 50% 29.75 in 10.0 mi NNW 5.8 mph - N/A   Clear
2:55 PM 42.3 °F 38.6 °F 24.1 °F 49% 29.75 in 10.0 mi NNW 5.8 mph - N/A   Clear
3:15 PM 41.9 °F 38.2 °F 23.7 °F 49% 29.75 in 10.0 mi North 5.8 mph - N/A   Clear
3:35 PM 41.9 °F 36.9 °F 24.3 °F 50% 29.76 in 10.0 mi North 8.1 mph - N/A   Clear
3:55 PM 42.1 °F 38.4 °F 24.3 °F 49% 29.76 in 10.0 mi NNW 5.8 mph - N/A   Scattered Clouds
4:15 PM 41.9 °F 36.3 °F 25.0 °F 51% 29.76 in 10.0 mi NNE 9.2 mph - N/A   Clear
4:35 PM 41.9 °F 35.4 °F 25.2 °F 52% 29.76 in 10.0 mi NNE 11.5 mph 16.1 mph N/A   Clear
4:55 PM 40.5 °F 33.2 °F 24.8 °F 54% 29.76 in 10.0 mi NNE 12.7 mph 18.4 mph N/A   Clear
5:15 PM 40.1 °F 33.2 °F 24.4 °F 54% 29.76 in 10.0 mi North 11.5 mph - N/A   Clear
5:35 PM 39.2 °F 32.5 °F 23.9 °F 54% 29.78 in 10.0 mi NNE 10.4 mph - N/A   Clear
5:55 PM 38.3 °F 31.9 °F 24.1 °F 57% 29.79 in 10.0 mi North 9.2 mph - N/A   Clear
6:15 PM 37.9 °F 30.9 °F 23.7 °F 57% 29.79 in 10.0 mi NNE 10.4 mph - N/A   Clear
6:35 PM 37.2 °F 30.6 °F 24.3 °F 60% 29.80 in 10.0 mi NNE 9.2 mph - N/A   Clear
6:55 PM 36.5 °F 31.0 °F 23.9 °F 60% 29.81 in 10.0 mi NNE 6.9 mph - N/A   Clear
7:15 PM 36.0 °F 30.3 °F 23.5 °F 61% 29.83 in 10.0 mi North 6.9 mph - N/A   Clear
7:35 PM 35.6 °F 29.9 °F 23.5 °F 62% 29.84 in 10.0 mi North 6.9 mph - N/A   Clear
7:55 PM 35.2 °F 27.6 °F 23.0 °F 61% 29.84 in 10.0 mi North 10.4 mph - N/A   Clear
8:15 PM 35.1 °F 25.9 °F 22.6 °F 61% 29.85 in 10.0 mi North 13.8 mph - N/A   Clear
8:35 PM 34.5 °F 25.7 °F 22.3 °F 61% 29.86 in 10.0 mi North 12.7 mph 17.3 mph N/A   Clear
8:55 PM 33.8 °F 24.8 °F 21.6 °F 61% 29.86 in 10.0 mi North 12.7 mph 16.1 mph N/A   Clear
9:15 PM 33.6 °F 26.2 °F 20.7 °F 59% 29.86 in 10.0 mi NNE 9.2 mph - N/A   Scattered Clouds
9:35 PM 32.9 °F 25.9 °F 20.3 °F 60% 29.86 in 10.0 mi NNE 8.1 mph - N/A   Clear
9:55 PM 32.5 °F 28.1 °F 19.6 °F 59% 29.86 in 10.0 mi NNE 4.6 mph - N/A   Clear
10:15 PM 32.0 °F 27.5 °F 19.4 °F 60% 29.86 in 10.0 mi North 4.6 mph - N/A   Clear
10:35 PM 31.8 °F 27.3 °F 19.4 °F 60% 29.86 in 10.0 mi North 4.6 mph - N/A   Clear
10:55 PM 31.6 °F 27.0 °F 19.6 °F 61% 29.86 in 10.0 mi North 4.6 mph - N/A   Mostly Cloudy
11:15 PM 32.0 °F 24.2 °F 20.8 °F 63% 29.86 in 10.0 mi North 9.2 mph - N/A   Overcast
11:35 PM 32.0 °F 24.2 °F 20.8 °F 63% 29.85 in 10.0 mi NNE 9.2 mph - N/A   Overcast
11:55 PM 32.0 °F 25.6 °F 20.5 °F 63% 29.86 in 10.0 mi NNE 6.9 mph - N/A   Overcast